Theta_e
305 306 306 308 308 308 307 306 305 307 307 306 306 306 305 306 309 310 314 310 313 313 313 315 316 315 315 317 320 317 318 318 318 319 319 318 316 318 320 327 347 352 348 348 342
305 305 305 307 308 308 308 306 306 308 308 308 307 306 305 308 311 314 312 310 311 316 316 315 312 312 310 315 318 318 315 317 316 318 318 317 317 317 319 319 353 350 340 345 341
304 305 305 306 307 308 308 308 309 311 312 312 311 308 306 309 315 317 320 314 315 317 317 315 313 312 311 312 315 317 318 318 318 317 316 317 318 319 319 319 341 339 349 349 342
304 305 306 306 307 308 308 310 310 311 311 311 311 312 307 312 308 321 317 316 314 316 314 313 311 311 312 312 312 315 315 318 318 319 317 318 319 320 320 318 331 351 350 346 351
303 304 305 305 306 307 308 308 309 311 311 310 311 312 312 318 315 313 315 317 316 312 312 310 310 311 313 313 313 315 315 316 317 317 316 317 318 319 318 318 320 349 335 334 340
302 303 305 305 306 307 308 308 308 309 310 310 310 311 312 313 313 318 316 314 312 313 314 310 311 311 315 315 314 314 314 314 315 315 315 317 317 318 319 318 319 327 343 340 343
303 304 304 305 305 306 307 308 308 309 310 309 311 312 317 311 315 320 315 315 320 314 313 315 315 315 314 314 313 314 314 313 314 316 316 316 316 317 317 317 318 318 319 326 341
307 307 305 304 305 306 307 307 308 308 311 309 309 316 315 312 315 315 314 319 322 317 316 318 316 314 314 313 314 313 313 314 314 316 317 317 316 316 316 316 317 317 317 318 328
311 311 309 306 304 306 308 307 308 310 313 309 311 318 319 320 321 318 318 318 319 317 316 317 317 317 317 314 311 310 313 314 315 316 316 317 316 316 316 315 316 315 315 317 317
311 312 312 310 305 305 308 308 312 315 316 316 317 317 316 320 320 320 320 318 315 315 315 318 312 314 311 310 314 312 313 314 314 316 316 315 314 315 315 315 316 316 315 315 317
312 312 312 312 309 306 308 309 310 313 318 319 318 318 319 323 323 319 319 317 316 317 316 315 313 312 311 311 312 313 314 314 314 315 316 315 315 316 316 315 313 315 314 314 315
312 311 312 313 311 308 309 309 314 312 309 315 315 318 318 318 322 321 318 316 316 315 315 314 312 311 312 312 313 314 314 314 313 315 314 316 315 315 315 316 316 314 314 314 315
311 311 312 312 310 314 312 314 314 315 311 313 313 313 315 318 319 318 316 315 315 314 315 314 315 315 314 314 314 313 314 314 314 316 315 314 314 315 314 316 316 315 315 315 315
312 311 311 311 311 308 314 313 313 314 311 314 314 314 313 312 314 315 316 316 315 315 314 314 315 316 316 315 317 316 315 316 316 316 314 314 316 313 314 314 315 314 313 313 314
311 311 310 308 308 309 315 312 312 315 314 319 316 316 313 313 318 318 319 316 317 318 317 317 317 317 317 317 317 317 317 317 317 315 314 315 313 312 313 315 314 314 315 315 313
311 311 309 309 309 310 313 312 313 316 317 320 318 317 317 317 318 319 319 317 317 318 317 316 316 317 317 317 317 318 316 316 315 312 316 313 314 313 314 316 315 316 317 320 320
312 311 311 310 309 311 312 310 314 318 317 315 315 316 315 314 316 319 320 317 316 318 317 316 317 317 315 313 312 314 318 320 318 316 316 313 314 313 323 328 323 320 318 317 315
311 312 312 314 315 312 311 310 316 317 314 313 313 314 315 314 315 316 315 314 312 315 315 318 318 316 312 311 311 314 322 324 324 319 318 315 315 316 328 326 325 323 319 318 315
310 313 314 312 313 314 307 311 314 312 310 310 313 314 315 314 315 314 314 314 311 309 314 313 318 313 311 312 311 311 312 311 321 321 320 318 319 325 326 326 324 321 320 319 316
306 310 313 312 312 310 307 312 313 309 309 309 312 312 313 311 312 313 314 312 311 310 309 309 310 310 310 312 311 310 309 317 325 327 326 321 321 327 327 325 324 320 319 318 317
307 309 314 313 312 305 308 310 309 309 309 309 309 310 310 312 312 313 314 311 310 309 308 308 308 309 309 310 309 310 309 308 315 327 330 328 321 328 325 323 322 320 319 318 318
303 311 314 312 308 306 308 310 311 309 308 309 309 310 310 310 311 313 313 312 308 308 308 308 306 308 308 307 308 308 309 308 310 312 321 326 322 326 324 322 321 320 317 317 317
301 305 314 312 308 307 309 311 310 310 309 309 309 309 309 309 308 310 310 311 309 309 308 305 303 303 303 305 306 308 308 308 307 308 312 317 315 326 325 323 322 319 316 316 316
302 311 306 304 305 309 309 310 311 310 308 308 308 308 308 308 307 308 309 311 309 309 310 306 303 303 302 304 306 309 308 308 307 307 307 308 308 307 315 323 321 320 318 315 314
304 308 306 307 307 307 308 309 310 309 307 306 306 308 308 308 309 311 311 311 309 309 306 303 305 307 309 310 310 309 308 308 308 308 308 307 306 306 304 307 317 318 315 318 316
305 305 303 305 306 307 307 310 310 307 306 306 307 308 309 309 310 310 308 308 309 309 310 306 307 308 309 309 309 308 307 306 306 308 307 306 306 309 308 310 310 309 314 319 317
305 306 302 304 306 307 305 306 306 305 306 306 305 306 308 307 306 305 304 305 306 306 306 307 306 307 309 308 307 307 306 307 307 309 310 312 311 310 310 310 310 310 310 313 314
Wind_Speed
29 30 29 25 23 22 18 15 12 10 10 10 11 12 14 14 16 14 8 13 4 5 11 9 8 8 4 3 4 4 1 4 6 5 9 8 6 9 8 9 5 10 9 17 7
29 30 31 26 24 23 20 15 11 9 8 8 9 11 11 14 16 13 15 14 13 6 7 6 4 4 2 2 2 5 4 8 8 6 11 5 4 8 9 11 6 9 18 34 21
28 29 31 27 24 22 20 16 12 10 10 9 9 10 9 11 5 7 10 6 13 10 9 6 6 1 3 1 3 3 7 4 7 10 11 6 9 4 7 7 2 5 8 10 8
29 30 30 30 24 22 19 16 14 11 9 9 9 9 6 4 4 2 4 6 13 10 9 4 3 3 3 6 5 3 9 6 9 9 7 9 6 4 4 7 5 10 16 14 7
30 31 30 31 28 22 19 18 16 13 11 11 11 8 2 2 10 9 7 8 11 9 7 5 4 4 3 4 4 5 9 9 11 11 9 12 11 8 6 6 3 11 8 12 18
32 33 30 31 30 24 20 17 18 16 13 13 12 4 1 4 6 7 13 12 10 10 6 7 6 7 5 6 4 6 7 9 8 8 5 5 10 3 6 5 2 8 11 8 16
34 35 33 33 31 26 22 18 16 16 13 11 8 3 2 15 3 8 17 12 9 13 5 13 17 4 3 9 3 4 6 9 6 5 5 2 8 7 7 8 4 8 7 9 12
37 37 36 35 34 28 24 21 19 16 11 7 1 3 7 13 10 16 17 12 12 14 18 15 14 5 4 4 9 6 3 4 8 6 7 5 9 10 12 8 13 7 8 8 11
40 41 41 38 36 30 24 22 21 12 4 2 3 2 10 12 7 22 27 18 22 18 18 18 6 3 4 3 6 6 5 6 9 6 6 4 10 11 10 8 11 12 8 9 8
42 42 43 41 38 32 25 20 8 2 2 1 3 2 7 5 6 16 16 16 8 5 2 3 4 1 3 4 7 5 6 5 7 10 0 9 10 11 11 7 14 14 13 8 9
44 45 44 41 39 32 23 4 3 2 4 6 6 6 11 6 11 12 20 8 4 4 6 3 2 7 10 9 9 7 6 7 9 14 4 8 7 11 11 6 10 12 11 10 9
45 46 46 41 41 21 6 1 6 6 9 11 18 22 32 18 7 12 12 6 4 6 2 3 6 12 8 9 8 9 9 12 10 12 7 8 8 9 6 7 7 9 9 10 6
46 47 44 44 32 4 11 9 16 9 3 16 11 11 10 19 12 18 9 6 6 6 6 8 10 11 12 12 11 13 13 13 15 16 6 5 8 4 8 4 7 8 7 6 9
48 51 45 46 6 16 7 22 13 6 4 8 4 6 7 8 6 21 22 9 5 12 7 6 9 11 12 10 13 13 11 16 10 4 6 4 13 5 6 10 6 9 9 11 11
52 50 50 24 14 5 11 21 16 4 4 3 2 8 8 8 3 4 8 5 11 6 6 7 4 7 7 6 5 9 11 15 13 7 5 3 1 7 4 8 11 10 9 10 10
54 51 38 8 7 12 17 21 5 4 6 7 5 2 4 5 4 3 2 4 4 3 1 5 3 3 5 7 4 6 5 3 1 2 9 6 6 2 2 5 8 11 17 21 21
55 50 16 6 4 14 20 5 4 3 6 8 6 8 4 6 6 1 1 5 2 3 0 3 3 1 6 6 8 9 6 4 4 2 6 8 3 6 6 10 10 14 16 17 20
52 33 11 11 13 15 11 5 1 5 6 10 9 12 4 9 7 9 4 4 12 7 1 2 1 5 9 5 3 4 2 3 5 2 4 5 5 4 4 6 11 15 10 17 22
47 24 11 17 11 10 5 4 2 5 7 9 11 5 6 8 5 8 8 4 6 7 5 3 2 4 16 7 6 7 5 7 4 3 1 4 2 2 7 10 12 14 16 15 17
27 14 8 20 13 1 4 3 2 5 5 5 6 9 9 12 10 7 4 8 3 8 4 2 3 6 6 6 12 7 8 5 4 5 4 4 3 1 7 8 8 13 10 9 14
8 4 12 28 10 5 3 3 3 8 8 5 4 3 4 4 6 7 7 4 5 6 7 2 3 5 5 6 6 2 3 3 2 5 2 3 4 2 2 1 3 5 5 6 11
9 3 16 23 5 2 3 8 7 3 6 5 6 6 5 4 3 3 8 9 4 1 2 2 3 0 2 5 7 2 4 4 3 5 3 4 6 4 5 6 4 4 3 2 7
3 3 11 14 4 4 5 4 6 6 1 2 2 2 2 3 3 1 2 1 4 3 1 2 2 3 6 6 5 3 7 5 4 1 3 2 4 5 3 4 5 4 5 5 2
3 4 4 4 1 3 4 3 5 6 4 4 1 4 3 4 3 4 4 7 4 4 9 6 3 5 4 4 3 7 8 8 2 1 2 4 6 11 5 7 7 8 8 8 4
1 2 1 4 5 7 3 4 5 5 5 7 6 5 5 4 3 3 6 3 4 3 3 4 1 0 2 5 5 8 11 8 9 6 4 6 4 7 13 8 8 12 6 7 7
2 3 4 4 5 5 5 3 1 1 2 3 3 8 5 4 4 3 3 3 2 4 3 2 1 4 4 5 6 9 11 9 7 6 7 7 3 9 7 13 15 14 9 7 9
5 5 3 5 5 4 5 4 5 2 2 6 3 4 4 3 4 4 5 5 6 4 3 5 4 3 5 4 6 6 4 3 5 5 2 3 3 7 11 15 11 14 14 8 9
Wind_Direction
3 1 358 355 353 349 339 334 330 326 323 320 317 313 315 320 315 297 249 247 206 230 232 284 296 293 262 228 184 116 90 223 232 240 269 337 346 326 292 332 126 140 99 273 184
3 2 0 357 356 353 347 339 336 335 335 334 324 317 322 323 316 269 286 251 219 239 220 218 290 326 313 245 227 139 163 230 209 238 277 277 308 306 336 338 326 119 158 246 149
2 1 1 357 354 354 351 347 344 339 336 330 325 326 328 330 331 253 331 193 203 211 243 247 269 117 234 235 230 212 215 221 256 250 261 261 284 247 319 338 60 186 96 34 16
2 359 358 357 351 350 353 349 343 339 337 331 321 321 323 343 304 283 347 153 189 225 235 219 165 168 220 229 239 227 271 238 264 260 275 267 257 284 242 240 311 147 146 119 208
2 359 356 356 351 343 343 346 344 331 326 321 318 320 347 25 249 240 259 159 187 197 194 184 166 158 219 224 254 205 259 262 252 259 259 275 265 241 245 240 267 160 160 177 203
2 358 355 353 350 341 333 336 336 329 318 317 312 303 188 271 259 252 195 180 185 185 187 165 212 193 278 247 172 260 271 267 275 263 248 249 277 178 252 278 356 127 203 221 213
2 359 354 350 348 340 327 323 328 326 323 320 313 147 261 241 181 223 196 203 204 205 194 214 235 133 304 315 233 269 301 313 289 271 275 360 310 278 256 293 267 175 233 192 223
360 357 354 350 345 338 327 318 314 307 305 321 101 125 246 264 293 237 196 239 230 220 222 245 255 201 183 274 332 359 24 317 292 334 283 115 277 269 273 260 280 228 232 215 227
358 355 352 348 345 337 325 320 312 295 267 275 142 139 266 301 232 229 230 211 235 236 236 241 246 214 335 7 351 8 252 298 309 276 257 204 277 262 262 253 257 271 203 233 249
354 352 349 345 344 336 325 324 326 105 154 128 271 350 265 248 217 213 203 213 206 241 223 198 56 281 4 83 245 267 285 280 265 273 190 288 272 285 282 232 249 250 261 231 233
351 349 347 341 341 334 326 339 20 41 202 210 212 245 293 264 323 202 213 200 189 127 170 237 157 230 237 221 223 236 236 249 266 274 213 252 257 267 276 299 265 252 241 245 245
350 347 345 338 338 331 334 102 236 308 295 223 242 235 239 258 305 295 203 149 162 217 169 4 231 230 228 237 239 245 254 272 281 262 185 267 263 265 280 264 257 254 243 230 228
349 346 344 338 336 19 323 296 319 334 295 289 235 235 225 213 233 255 179 179 171 206 213 194 243 228 229 252 249 250 241 252 246 268 282 283 286 310 304 293 291 279 257 258 244
348 345 345 338 340 338 291 345 353 335 14 272 233 257 157 173 232 227 233 163 195 202 213 216 257 244 250 239 246 251 239 239 238 200 250 219 276 300 270 296 293 298 302 285 282
345 344 342 342 290 293 332 344 342 40 335 270 214 180 137 151 208 219 188 152 195 189 142 240 261 290 292 238 249 245 266 261 254 225 180 288 13 265 2 322 300 290 291 288 278
342 342 340 348 272 293 328 334 340 51 258 344 35 298 99 184 277 61 130 59 129 159 259 217 254 215 254 307 8 314 298 276 13 154 253 208 175 256 251 283 316 337 10 11 6
340 343 340 332 272 327 344 22 47 177 325 4 344 340 43 16 358 160 216 34 91 99 20 341 278 303 15 7 359 21 40 334 315 301 234 215 190 223 73 33 40 58 33 21 13
340 350 3 334 335 335 347 52 235 322 359 358 338 319 57 13 22 21 44 71 29 15 114 121 82 33 12 76 301 318 106 158 282 267 290 294 214 185 76 84 73 50 33 25 24
342 0 7 28 8 330 60 51 269 348 354 349 327 3 5 360 20 24 69 61 42 28 80 54 248 7 44 19 33 331 45 281 252 270 228 243 83 24 25 29 44 47 35 22 18
337 332 317 350 332 84 78 226 324 35 2 2 28 23 14 4 21 23 56 7 38 27 85 340 326 19 348 61 30 31 309 346 16 337 292 299 348 93 13 348 32 34 26 27 30
3 7 347 355 339 54 151 231 43 37 37 12 13 19 20 14 8 354 360 24 12 2 57 80 136 299 31 34 313 6 348 303 148 169 218 329 294 13 172 224 13 43 16 6 41
354 5 354 345 44 26 30 318 307 91 26 13 34 49 17 303 262 303 300 316 259 196 129 318 132 49 224 263 291 242 37 10 99 292 198 194 260 92 0 347 334 33 349 147 121
345 278 355 32 71 350 306 302 346 11 1 139 309 91 49 294 306 331 262 260 151 59 82 290 41 11 353 4 21 67 330 319 280 93 254 150 262 151 193 257 235 211 251 264 43
2 350 330 36 95 50 332 315 329 313 35 45 12 338 341 256 217 291 319 31 54 90 69 71 77 136 178 208 286 303 329 345 14 257 229 243 281 310 265 255 262 275 270 288 339
65 272 221 312 338 330 298 278 319 355 22 40 359 31 2 289 311 77 29 28 57 23 60 87 73 57 262 284 295 307 318 310 311 271 252 274 285 313 307 299 259 250 261 246 244
40 15 351 283 283 329 318 254 192 92 55 356 19 314 28 60 20 29 23 37 327 19 70 3 254 38 289 282 289 295 289 278 281 290 320 298 304 359 323 357 359 343 270 227 241
351 343 107 280 324 4 323 12 38 43 18 87 338 351 29 345 309 269 197 216 229 182 189 144 155 118 259 285 327 313 297 289 254 59 297 59 281 343 356 351 1 343 14 317 278